{"data":{"norad_id":62847,"intl_designator":"2025-019U","name":"STARLINK-32799","alt_names":[],"object_type":"PAYLOAD","status":"ACTIVE","operator":null,"country":"US","launch_date":"2025-01-27","launch_site_code":"AFETR","launch_vehicle":null,"mission":null,"orbit_class":"UNKNOWN","rcs_meters":null,"size_class":null,"mass_kg":null,"dimensions":null,"purposes":["comms"],"wikipedia_slug":null,"has_3d_model":false,"image_url":null,"decayed_at":null,"tle_current":{"epoch":"2026-05-25T00:00:54.260928Z","epoch_age_seconds":89172,"freshness":"FRESH","line1":"1 62847U 25019U   26145.00062802  .00013557  00000+0  50109-3 0  9998","line2":"2 62847  42.9999  17.8463 0001415 277.3879  82.6812 15.27591840 73924","mean_motion":15.2759184,"eccentricity":0.0001415,"inclination_deg":42.9999,"raan_deg":17.8463,"arg_perigee_deg":277.3879,"mean_anomaly_deg":82.6812,"bstar":0.00050109,"rev_number":7392,"period_min":94.266018074566,"perigee_km":482.04279023323,"apogee_km":483.98449586522,"semimajor_km":6861.1506430492,"source":"CELESTRAK","updated_at":"2026-05-25T13:38:19.782094Z"}}}